Weather Roundup
Issued by NWS

Home | Current Version | Previous Version | Graphics & Text | Print | Product List | Glossary Off
Versions: 1 2 3 4 5 6 7 8 9 10 11 12 13 14 15 16 17 18 19 20 21 22 23 24 25 26 27 28 29 30 31 32 33 34 35 36 37 38 39 40 41 42 43 44 45 46 47 48 49 50

000
NZUS93 KARX 161759
HRRWXR

CURRENT HOURLY OBSERVATIONS ACROSS
MUCH OF THE UPPER MISSISSIPPI VALLEY
NATIONAL WEATHER SERVICE LA CROSSE WI
100 PM CDT TUE SEP 16 2014


...SOUTHEAST MINNESOTA...


CITY           SKY/WX    TMP DP  RH WIND       PRES   REMARKS
ROCHESTER      MOSUNNY   62  50  65 SW8       30.17F
ROCHESTER/MAYO FAIR      61  35  37 W5        30.15F
WINONA         SUNNY     63  41  45 W3        30.15F
AUSTIN         MOSUNNY   63  43  48 SW8       30.15F
ALBERT LEA     SUNNY     63  43  48 SW6       30.15F
DODGE CENTER   SUNNY     63  45  51 W8        30.15F
PRESTON        MOSUNNY   60  47  62 W8        30.17F
OWATONNA       MOSUNNY   64  43  45 SW8       30.15F
FARIBAULT      MOSUNNY   66  39  37 SW6       30.14F
$$

...ELSEWHERE IN MINNESOTA...


CITY           SKY/WX    TMP DP  RH WIND       PRES   REMARKS
MINNEAPOLIS    SUNNY     64  41  42 SW12      30.13F
INTNL FALLS    CLOUDY    56  45  66 NW9       30.00R
DULUTH         MOSUNNY   66  41  40 W18G24    30.03F
RED WING       SUNNY     66  39  37 W7        30.13F
REDWOOD FALLS  SUNNY     65  43  44 SW12      30.11F
MANKATO        SUNNY     64  41  42 SW6       30.13F
WORTHINGTON    SUNNY     63  43  48 SW12      30.13F
FAIRMONT       SUNNY     63  39  42 S13G18    30.14F
$$

...SOUTHWEST WISCONSIN...


CITY           SKY/WX    TMP DP  RH WIND       PRES   REMARKS
LA CROSSE      SUNNY     65  42  43 W8        30.16F
PRAIRIE DU CHI PTSUNNY   62  40  44 SW6       30.18F
BOSCOBEL       MOSUNNY   64  43  46 SW8       30.18F
LONE ROCK      NOT AVBL
PLATTEVILLE    MOSUNNY   61  43  52 NW6       30.20F
FORT MC COY    SUNNY     61  39  43 SW6       30.17F
VIROQUA        FAIR      61  40  46 W7        30.17F
WIS DELLS      SUNNY     61  38  42 SW6       30.17F
$$

...ELSEWHERE IN WISCONSIN...


CITY           SKY/WX    TMP DP  RH WIND       PRES   REMARKS
MILWAUKEE      MOSUNNY   61  37  41 CALM      30.17F
MADISON        MOSUNNY   60  39  45 VRB7      30.17F
GREEN BAY      SUNNY     63  42  46 W8        30.12F
EAU CLAIRE     NOT AVBL
BLACK RVR FLS  FAIR      63  39  40 W9        30.15F
MEDFORD        SUNNY     60  40  48 W12       30.13F
WAUSAU         SUNNY     62  40  44 W15G24    30.11F
WIS RAPIDS     SUNNY     63  40  42 W8        30.16F
MARSHFIELD     SUNNY     63  43  48 W13       30.13F
RICE LAKE      SUNNY     62  38  40 SW8       30.14F
$$

...NORTHEAST IOWA...


CITY           SKY/WX    TMP DP  RH WIND       PRES   REMARKS
WATERLOO       SUNNY     63  41  44 MISG      30.17F
DUBUQUE        SUNNY     60  42  51 SW9       30.19F
DECORAH        SUNNY     59  43  55 VRB5      30.17F
MASON CITY     SUNNY     63  42  46 S8        30.18F
CHARLES CITY   SUNNY     63  41  45 VRB5G13   30.19F
OELWEIN        SUNNY     61  43  51 W7G13     30.19F
$$

...ELSEWHERE IN IOWA...


CITY           SKY/WX    TMP DP  RH WIND       PRES   REMARKS
DES MOINES     MOSUNNY   65  45  48 S7        30.19F
IOWA CITY      SUNNY     62  46  55 VRB5      30.20F
FORT DODGE     SUNNY     63  45  51 S8        30.18F
MARSHALLTOWN   SUNNY     63  43  48 S8        30.18F
CEDAR RAPIDS   SUNNY     62  46  55 SW10      30.18F
$$

...NORTHERN ILLINOIS...


CITY           SKY/WX    TMP DP  RH WIND       PRES   REMARKS
CHICAGO-OHARE  MOSUNNY   63  39  41 NW6       30.17F
DUPAGE         SUNNY     65  41  41 NW3       30.18F
CHICAGO-MIDWAY MOSUNNY   65  43  44 VRB3      30.17F
MOLINE         SUNNY     65  42  43 NW8       30.20F
ROCKFORD       MOSUNNY   63  38  39 VRB7      30.20F
STERLING       SUNNY     64  45  48 W5        30.19F
PEORIA         SUNNY     66  45  46 N7        30.19F
$$

NOTE: "FAIR" INDICATES FEW OR NO CLOUDS BELOW 12,000 FEET WITH NO
SIGNIFICANT WEATHER AND/OR OBSTRUCTIONS TO VISIBILITY. WIND
SPEEDS ARE IN MILES-PER-HOUR.



USA.gov is the U.S. government's official web portal to all federal, state and local government web resources and services.